| time (UTC) | temp F | wind direction | speed MPH | gust MPH | rain 1hr in | rain 24hr in | rain mn in | humidity % | barometer mb |
| 20260507134518 | 52 | 196 | 0.0 | 0.0 | 0.00 | 0.40 | 0.21 | 82 | 1009.7 |
| 20260507133014 | 51 | 69 | 0.0 | 0.0 | 0.00 | 0.40 | 0.21 | 83 | 1009.6 |
| 20260507131511 | 50 | 17 | 0.0 | 0.0 | 0.00 | 0.40 | 0.21 | 85 | 1009.3 |
| 20260507130024 | 49 | 193 | 0.0 | 0.0 | 0.00 | 0.40 | 0.21 | 91 | 1009.4 |
| 20260507124511 | 49 | 78 | 0.0 | 0.0 | 0.00 | 0.40 | 0.21 | 92 | 1009.5 |
| 20260507123005 | 48 | 152 | 0.0 | 0.0 | 0.00 | 0.40 | 0.21 | 93 | 1009.4 |
| 20260507121503 | 48 | 178 | 0.0 | 0.0 | 0.00 | 0.40 | 0.21 | 93 | 1009.5 |
| 20260507120006 | 47 | 175 | 0.0 | 0.0 | 0.00 | 0.40 | 0.21 | 93 | 1009.4 |
| 20260507114603 | 47 | 159 | 0.0 | 0.0 | 0.00 | 0.40 | 0.21 | 93 | 1009.3 |
| 20260507113055 | 47 | 224 | 0.0 | 0.0 | 0.00 | 0.40 | 0.21 | 93 | 1009.0 |
| 20260507111559 | 47 | 224 | 0.0 | 0.0 | 0.00 | 0.40 | 0.21 | 93 | 1009.0 |
| 20260507110050 | 47 | 224 | 0.0 | 0.0 | 0.00 | 0.40 | 0.21 | 93 | 1008.8 |
| 20260507104548 | 47 | 225 | 0.0 | 0.0 | 0.00 | 0.40 | 0.21 | 93 | 1008.7 |
| 20260507103045 | 47 | 225 | 0.0 | 0.0 | 0.00 | 0.40 | 0.21 | 93 | 1008.4 |
| 20260507101555 | 47 | 225 | 0.0 | 0.0 | 0.00 | 0.40 | 0.21 | 93 | 1008.1 |
| 20260507100041 | 47 | 225 | 0.0 | 0.0 | 0.00 | 0.40 | 0.21 | 93 | 1008.0 |
| 20260507094542 | 47 | 223 | 0.0 | 0.0 | 0.00 | 0.40 | 0.21 | 93 | 1008.0 |
| 20260507093044 | 48 | 191 | 0.0 | 0.0 | 0.00 | 0.40 | 0.21 | 93 | 1007.9 |
| 20260507091538 | 48 | 191 | 0.0 | 0.0 | 0.02 | 0.40 | 0.21 | 93 | 1007.9 |
| 20260507090037 | 48 | 275 | 0.0 | 0.0 | 0.04 | 0.40 | 0.21 | 93 | 1007.7 |
| 20260507084533 | 49 | 306 | 0.0 | 0.0 | 0.06 | 0.40 | 0.21 | 93 | 1007.8 |
| 20260507083031 | 49 | 306 | 0.0 | 0.0 | 0.08 | 0.40 | 0.21 | 93 | 1007.7 |
| 20260507081536 | 49 | 305 | 0.0 | 0.0 | 0.06 | 0.38 | 0.19 | 93 | 1007.7 |
| 20260507080029 | 49 | 265 | 0.0 | 1.0 | 0.06 | 0.36 | 0.17 | 93 | 1008.0 |
| 20260507074527 | 50 | 265 | 0.0 | 0.0 | 0.07 | 0.34 | 0.15 | 92 | 1007.9 |
| 20260507073026 | 50 | 262 | 0.0 | 0.0 | 0.07 | 0.32 | 0.13 | 92 | 1008.1 |
| 20260507071528 | 50 | 263 | 0.0 | 0.0 | 0.08 | 0.32 | 0.13 | 92 | 1008.0 |
| 20260507070024 | 50 | 261 | 0.0 | 0.0 | 0.08 | 0.30 | 0.11 | 92 | 1008.0 |
| 20260507064522 | 51 | 138 | 0.0 | 0.0 | 0.07 | 0.27 | 0.08 | 91 | 1007.9 |
| 20260507063021 | 51 | 140 | 0.0 | 0.0 | 0.06 | 0.25 | 0.06 | 91 | 1007.7 |
| 20260507061517 | 51 | 141 | 0.0 | 0.0 | 0.05 | 0.24 | 0.05 | 90 | 1007.6 |
| 20260507060015 | 52 | 141 | 0.0 | 0.0 | 0.03 | 0.22 | 0.03 | 89 | 1007.7 |
| 20260507054512 | 52 | 268 | 0.0 | 0.0 | 0.01 | 0.20 | 0.01 | 88 | 1007.2 |
| 20260507053011 | 53 | 206 | 0.0 | 0.0 | 0.00 | 0.19 | 0.00 | 87 | 1007.3 |
| 20260507051508 | 53 | 290 | 0.0 | 0.0 | 0.00 | 0.19 | 0.00 | 87 | 1007.3 |
| 20260507050009 | 53 | 289 | 0.0 | 0.0 | 0.00 | 0.19 | 0.00 | 88 | 1007.3 |
| 20260507044504 | 54 | 280 | 0.0 | 0.0 | 0.00 | 0.19 | 0.00 | 89 | 1007.5 |
| 20260507043003 | 54 | 299 | 0.0 | 0.0 | 0.00 | 0.19 | 0.00 | 89 | 1007.4 |
| 20260507041503 | 55 | 297 | 0.0 | 0.0 | 0.00 | 0.19 | 0.00 | 89 | 1007.6 |
| 20260507040100 | 55 | 297 | 0.0 | 0.0 | 0.00 | 0.19 | 0.00 | 90 | 1007.5 |
| 20260507034607 | 55 | 297 | 0.0 | 0.0 | 0.00 | 0.19 | 0.19 | 90 | 1007.2 |
| 20260507033056 | 55 | 297 | 0.0 | 0.0 | 0.00 | 0.19 | 0.19 | 90 | 1007.2 |
| 20260507031558 | 56 | 297 | 0.0 | 0.0 | 0.00 | 0.19 | 0.19 | 90 | 1007.2 |
| 20260507030101 | 56 | 297 | 0.0 | 0.0 | 0.00 | 0.19 | 0.19 | 90 | 1007.4 |
| 20260507024553 | 56 | 296 | 0.0 | 0.0 | 0.00 | 0.19 | 0.19 | 90 | 1007.4 |
| 20260507023109 | 57 | 292 | 0.0 | 0.0 | 0.01 | 0.19 | 0.19 | 90 | 1007.3 |
| 20260507021554 | 58 | 201 | 0.0 | 0.0 | 0.01 | 0.19 | 0.19 | 90 | 1007.3 |
| 20260507014602 | 60 | 267 | 0.0 | 0.0 | 0.01 | 0.19 | 0.19 | 92 | 1007.2 |
| 20260507013109 | 60 | 176 | 0.0 | 0.0 | 0.00 | 0.18 | 0.18 | 93 | 1006.9 |
| 20260507011549 | 60 | 175 | 0.0 | 0.0 | 0.00 | 0.18 | 0.18 | 93 | 1006.8 |
| 20260507010048 | 60 | 159 | 0.0 | 0.0 | 0.00 | 0.18 | 0.18 | 93 | 1006.7 |
| 20260507004549 | 60 | 188 | 0.0 | 0.0 | 0.00 | 0.18 | 0.18 | 93 | 1006.5 |
| 20260507003046 | 60 | 207 | 0.0 | 0.0 | 0.00 | 0.18 | 0.18 | 93 | 1006.4 |
| 20260507001606 | 60 | 200 | 0.0 | 0.0 | 0.00 | 0.18 | 0.18 | 93 | 1006.5 |
| 20260507000047 | 60 | 223 | 0.0 | 0.0 | 0.00 | 0.18 | 0.18 | 93 | 1006.2 |
| 20260506234544 | 60 | 192 | 0.0 | 0.0 | 0.00 | 0.18 | 0.18 | 93 | 1006.0 |
| 20260506233047 | 60 | 333 | 0.0 | 5.0 | 0.00 | 0.18 | 0.18 | 93 | 1006.1 |
| 20260506231547 | 60 | 248 | 0.0 | 0.0 | 0.00 | 0.18 | 0.18 | 93 | 1006.3 |
| 20260506230042 | 60 | 229 | 0.0 | 0.0 | 0.00 | 0.18 | 0.18 | 93 | 1006.1 |
| 20260506224542 | 60 | 210 | 0.0 | 0.0 | 0.00 | 0.18 | 0.18 | 93 | 1006.0 |
| 20260506223058 | 60 | 113 | 0.0 | 0.0 | 0.00 | 0.18 | 0.18 | 93 | 1005.8 |
| 20260506221540 | 60 | 223 | 0.0 | 1.0 | 0.00 | 0.18 | 0.18 | 93 | 1005.8 |
| 20260506220039 | 60 | 5 | 0.0 | 0.0 | 0.00 | 0.18 | 0.18 | 93 | 1005.7 |
| 20260506214541 | 60 | 196 | 0.0 | 1.0 | 0.00 | 0.18 | 0.18 | 93 | 1005.5 |
| 20260506213038 | 60 | 229 | 0.0 | 0.0 | 0.00 | 0.18 | 0.18 | 93 | 1005.4 |
| 20260506211537 | 60 | 232 | 0.0 | 0.0 | 0.01 | 0.18 | 0.18 | 93 | 1005.5 |
| 20260506210039 | 60 | 191 | 0.0 | 0.0 | 0.04 | 0.18 | 0.18 | 93 | 1005.2 |
| 20260506204535 | 59 | 215 | 0.0 | 8.0 | 0.05 | 0.18 | 0.18 | 93 | 1005.1 |
| 20260506203041 | 59 | 201 | 0.0 | 0.0 | 0.08 | 0.18 | 0.18 | 92 | 1005.4 |
| 20260506201531 | 59 | 186 | 0.0 | 0.0 | 0.11 | 0.17 | 0.17 | 92 | 1005.5 |
| 20260506200032 | 59 | 212 | 0.0 | 0.0 | 0.09 | 0.14 | 0.14 | 92 | 1005.6 |
| 20260506194528 | 59 | 205 | 0.0 | 0.0 | 0.08 | 0.13 | 0.13 | 91 | 1005.9 |
| 20260506193026 | 59 | 163 | 0.0 | 0.0 | 0.05 | 0.10 | 0.10 | 91 | 1006.0 |
| 20260506191524 | 59 | 217 | 0.0 | 1.0 | 0.01 | 0.06 | 0.06 | 90 | 1006.2 |
| 20260506190024 | 60 | 150 | 0.0 | 0.0 | 0.00 | 0.05 | 0.05 | 90 | 1006.1 |
| 20260506184522 | 60 | 206 | 0.0 | 1.0 | 0.01 | 0.05 | 0.05 | 90 | 1006.3 |
| 20260506183023 | 60 | 142 | 0.0 | 1.0 | 0.02 | 0.05 | 0.05 | 90 | 1006.4 |
| 20260506181522 | 60 | 226 | 0.0 | 1.0 | 0.03 | 0.05 | 0.05 | 90 | 1006.6 |
| 20260506180031 | 60 | 230 | 0.0 | 2.0 | 0.03 | 0.05 | 0.05 | 90 | 1006.8 |
| 20260506174517 | 60 | 229 | 0.0 | 1.0 | 0.03 | 0.04 | 0.04 | 89 | 1006.7 |
| 20260506173017 | 60 | 203 | 0.0 | 5.0 | 0.03 | 0.03 | 0.03 | 88 | 1006.7 |
| 20260506171531 | 61 | 190 | 0.0 | 0.0 | 0.02 | 0.02 | 0.02 | 87 | 1006.8 |
| 20260506170014 | 61 | 226 | 0.0 | 0.0 | 0.02 | 0.02 | 0.02 | 86 | 1006.9 |
| 20260506164512 | 62 | 140 | 0.0 | 0.0 | 0.01 | 0.01 | 0.01 | 84 | 1007.1 |
| 20260506163018 | 63 | 186 | 0.0 | 0.0 | 0.00 | 0.00 | 0.00 | 81 | 1007.8 |
| 20260506161518 | 64 | 167 | 0.0 | 1.0 | 0.00 | 0.00 | 0.00 | 79 | 1007.9 |
| 20260506160009 | 64 | 178 | 0.0 | 1.0 | 0.00 | 0.00 | 0.00 | 79 | 1007.7 |
| 20260506154506 | 64 | 185 | 0.0 | 0.0 | 0.00 | 0.00 | 0.00 | 77 | 1007.8 |
| 20260506153004 | 65 | 201 | 0.0 | 0.0 | 0.00 | 0.00 | 0.00 | 75 | 1008.1 |
| 20260506151503 | 66 | 232 | 0.0 | 1.0 | 0.00 | 0.00 | 0.00 | 75 | 1008.1 |
| 20260506150005 | 66 | 149 | 0.0 | 0.0 | 0.00 | 0.00 | 0.00 | 75 | 1008.2 |
| 20260506144500 | 65 | 215 | 0.0 | 0.0 | 0.00 | 0.00 | 0.00 | 76 | 1008.0 |
| 20260506143100 | 65 | 205 | 0.0 | 1.0 | 0.00 | 0.00 | 0.00 | 77 | 1008.1 |
| 20260506141557 | 64 | 188 | 0.0 | 0.0 | 0.00 | 0.00 | 0.00 | 78 | 1008.1 |
| 20260506140056 | 64 | 194 | 0.0 | 0.0 | 0.00 | 0.00 | 0.00 | 79 | 1008.3 |